[[{"header":{"parameterUnit":"m.s-1","parameterCategory":1,"la1":30.2991,"la2":30.254,"lo1":-89.0895,"lo2":-89.0444,"dy":0.0017,"dx":0.0017,"nx":28,"ny":28,"refTime":"2024-08-31T09:00:00:Z","depth":0,"parameterNumber":2,"parameterNumberName":"U-component_of_WINDS"},"data":[0,0,0,0,0,0,0,0,0,0,0,0,0,0,0,0,0,0,0,0,0,0,0,0,0,0,0,0,0,0,0,0,0,0,0,0,0,0,0,0,0,0,0,0,0,0,0,0,0,0,0,0,0,0,0,0,0,0,-3.3553,-3.3554,0,-3.3706,-3.3708,-3.3709,-3.366,-3.3657,-3.3654,-3.3651,-3.3805,-3.3812,-3.3819,0,0,0,0,0,0,0,0,0,0,0,0,0,-3.3214,-3.3221,-3.3552,-3.3554,-3.3556,-3.3706,-3.3708,-3.371,-3.3661,-3.3657,-3.3653,-3.3649,-3.3803,-3.3811,-3.382,0,0,0,0,0,0,0,0,0,0,0,0,0,-3.3364,-3.3223,-3.3552,-3.355,-3.3551,-3.3705,-3.3708,-3.371,-3.3662,-3.3657,-3.3652,-3.3647,-3.38,-3.3811,-3.3821,-3.3985,0,0,-3.3854,-3.3859,0,0,0,0,0,0,0,0,-3.3355,-3.3376,-3.3548,-3.355,-3.3552,-3.3659,-3.3645,-3.3802,-3.3663,-3.362,-3.3651,-3.3645,-3.376,-3.3774,-3.3814,-3.3993,-3.3999,-3.3855,-3.3861,-3.3866,-3.3869,0,0,0,0,0,0,0,-3.3345,-3.3369,-3.3613,-3.3551,-3.3553,-3.354,-3.3556,-3.3675,-3.3716,-3.3623,-3.362,-3.3639,-3.376,-3.3803,-3.3817,-3.4001,-3.3855,-3.3864,-3.3871,-3.3875,-3.4321,-3.4326,0,0,0,0,0,0,-3.3334,-3.3361,-3.3608,-3.3618,-3.344,-3.355,-3.3568,-3.363,-3.3714,-3.3722,-3.3643,-3.3636,-3.3787,-3.3804,-3.3822,-3.4019,-3.3866,-3.3876,-3.3882,-3.4316,-3.4322,-3.4328,0,0,0,0,0,0,-3.3327,-3.3356,-3.3602,-3.3489,-3.3519,-3.3561,-3.3631,-3.3635,-3.3678,-3.3729,-3.3736,-3.368,-3.3784,-3.3807,-3.3945,-3.4024,-3.3881,-3.3891,-3.4309,-3.4318,-3.4325,-3.4415,0,0,0,0,0,0,-3.3317,-3.3354,-3.3418,-3.349,-3.3525,-3.3724,-3.3636,-3.3642,-3.3697,-3.369,-3.3765,-3.3773,-3.3782,-3.3929,-3.3956,-3.4036,-3.3899,-3.4303,-3.4313,-3.4323,-3.4405,-3.4425,-3.4442,0,0,0,0,0,-3.3305,-3.3437,-3.3421,-3.3451,-3.3606,-3.3728,-3.3748,-3.3757,-3.3704,-3.3767,-3.38,-3.3771,-3.4011,-3.3944,-3.3973,-3.4058,-3.4298,-3.431,-3.4322,-3.4397,-3.4421,-3.4442,0,0,0,0,0,0,-3.3372,-3.3446,-3.343,-3.3589,-3.3653,-3.372,-3.3801,-3.3782,-3.3862,-3.3851,-3.3858,-3.3875,-3.4017,-3.4051,-3.3975,-3.422,-3.4146,-3.4165,-3.4193,-3.4216,-3.4235,-3.4223,-3.3908,0,0,0,0,0,-3.3405,-3.3499,-3.3559,-3.3693,-3.3726,-3.3758,-3.3812,-3.3813,-3.3879,-3.3905,-3.3948,-3.4012,-3.4102,-3.4161,-3.4247,-3.441,-3.4424,-3.4482,-3.45,-3.4515,-3.4531,-3.4619,-3.4645,-3.4368,-3.4368,-3.4368,0,0,-3.3474,-3.3527,-3.3586,-3.3708,-3.3757,-3.3854,-3.3781,-3.3886,-3.3957,-3.3921,-3.4054,-3.4088,-3.416,-3.4311,-3.4379,-3.4343,-3.4611,-3.4531,-3.4543,-3.455,-3.4634,-3.466,-3.4683,-3.4377,-3.4375,-3.4374,0,0,-3.365,-3.37,-3.3817,-3.3868,-3.3944,-3.3964,-3.3992,-3.4062,-3.4083,-3.4217,-3.4191,-3.4275,-3.443,-3.4482,-3.4529,-3.4723,-3.4699,-3.4751,-3.4848,-3.4933,-3.4954,-3.4974,-3.5042,-3.5067,-3.4767,-3.4767,-3.4767,0,-3.3726,-3.3872,-3.3879,-3.3986,-3.404,-3.4012,-3.413,-3.4178,-3.4278,-3.4316,-3.4274,-3.4468,-3.4514,-3.4676,-3.4724,-3.4763,-3.4794,-3.4742,-3.4951,-3.497,-3.4988,-3.5053,-3.5079,-3.4773,-3.4772,-3.4771,-3.4771,0,-3.3961,-3.4062,-3.4147,-3.4245,-3.4308,-3.4421,-3.4443,-3.4506,-3.4502,-3.4526,-3.4661,-3.4716,-3.4812,-3.485,-3.4847,-3.5012,-3.4987,-3.4949,-3.4874,-3.502,-3.5082,-3.5107,-3.4781,-3.4779,-3.4777,-3.4776,0,0,-3.4184,-3.4283,-3.4315,-3.4358,-3.4439,-3.4517,-3.4627,-3.4721,-3.4774,-3.4844,-3.4935,-3.5067,-3.5031,-3.5084,-3.5086,-3.5161,-3.531,-3.5113,-3.5114,-3.5147,-3.5494,-3.5522,-3.5551,-3.5294,-3.5299,-3.5303,-3.5487,0,-3.4366,-3.456,-3.4569,-3.4746,-3.4838,-3.4812,-3.4907,-3.4967,-3.4992,-3.5074,-3.5101,-3.5194,-3.514,-3.5172,-3.5245,-3.5276,-3.5379,-3.5263,-3.5378,-3.5382,-3.536,-3.5583,-3.5614,-3.5785,-3.5511,-3.5516,-3.5518,0,-3.4604,-3.4681,-3.4867,-3.4934,-3.4973,-3.506,-3.5146,-3.5224,-3.529,-3.5303,-3.5363,-3.5353,-3.5464,-3.5386,-3.5539,-3.5459,-3.5507,-3.5529,-3.5536,-3.5547,-3.5459,-3.5599,-3.584,-3.5866,-3.5556,-3.5553,-3.5551,0,-3.4747,-3.4897,-3.5027,-3.5065,-3.5147,-3.5208,-3.5245,-3.5306,-3.5362,-3.5437,-3.5473,-3.556,-3.5607,-3.5674,-3.5688,-3.563,-3.584,-3.5763,-3.5853,-3.5852,-3.5898,-3.5895,-3.6149,-3.593,-3.5929,-3.5929,-3.5928,0,-3.4949,-3.5063,-3.5092,-3.5173,-3.5299,-3.5308,-3.5433,-3.5465,-3.552,-3.5605,-3.5587,-3.5667,-3.5681,-3.5763,-3.5775,-3.5898,-3.592,-3.5933,-3.5934,-3.5934,-3.5932,-3.5965,-3.5953,-3.5936,-3.5934,-3.5933,-3.5931,0,-3.5129,-3.5154,-3.5294,-3.536,-3.5379,-3.5469,-3.5525,-3.5601,-3.5624,-3.5732,-3.5757,-3.5793,-3.5889,-3.5909,-3.6023,-3.6031,-3.6177,-3.6168,-3.6155,-3.6154,-3.6242,-3.6233,-3.6526,-3.6564,-3.632,-3.6322,-3.6324,0,-3.5256,-3.5344,-3.5419,-3.5475,-3.5515,-3.5605,-3.5662,-3.5673,-3.5732,-3.5814,-3.588,-3.5974,-3.605,-3.6204,-3.624,-3.6326,-3.6318,-3.6415,-3.6331,-3.6327,-3.6318,-3.6313,-3.6321,-3.643,-3.6433,-3.6435,-3.6437,0,-3.5479,-3.5487,-3.5569,-3.5657,-3.5725,-3.5793,-3.5859,-3.5905,-3.5925,-3.5992,-3.6091,-3.615,-3.6266,-3.6359,-3.6446,-3.6482,-3.6463,-3.6463,-3.6488,-3.6489,-3.6478,-3.6484,-3.6198,-3.6456,-3.6454,-3.6453,-3.6452,-3.6451,-3.5637,-3.5713,-3.5777,-3.5869,-3.592,-3.5981,-3.6055,-3.6088,-3.617,-3.6266,-3.6267,-3.6374,-3.6437,-3.6551,-3.6592,-3.6675,-3.6645,-3.6682,-3.6691,-3.6699,-3.6707,-3.6465,-3.6691,-3.6691,-3.669,-3.669,-3.6689,0,-3.5858,-3.5898,-3.5982,-3.6075,-3.6147,-3.6123,-3.6194,-3.6255,-3.635,-3.6411,-3.6486,-3.6598,-3.6688,-3.673,-3.6819,-3.6877,-3.687,-3.69,-3.6895,-3.6904,-3.673,-3.6699,-3.6904,-3.6904,-3.6904,-3.6903,-3.6903,-3.6903,-3.5981,-3.6108,-3.6123,-3.6274,-3.6313,-3.6418,-3.6461,-3.6517,-3.6565,-3.6691,-3.6766,-3.6793,-3.6846,-3.6938,-3.7019,-3.7029,-3.7062,-3.7096,-3.7101,-3.6938,-3.6916,-3.6895,-3.6866,-3.7103,-3.7103,-3.7268,-3.727,-3.7271]},{"header":{"parameterUnit":"m.s-1","parameterCategory":1,"la1":30.2991,"la2":30.254,"lo1":-89.0895,"lo2":-89.0444,"dy":0.0017,"dx":0.0017,"nx":28,"ny":28,"refTime":"2024-08-31T09:00:00:Z","depth":0,"parameterNumber":3,"parameterNumberName":"V-component_of_WINDS"},"data":[0,0,0,0,0,0,0,0,0,0,0,0,0,0,0,0,0,0,0,0,0,0,0,0,0,0,0,0,0,0,0,0,0,0,0,0,0,0,0,0,0,0,0,0,0,0,0,0,0,0,0,0,0,0,0,0,0,0,-0.4979,-0.4979,0,-0.4952,-0.4952,-0.4952,-0.4974,-0.4975,-0.4976,-0.4977,-0.495,-0.4948,-0.4947,0,0,0,0,0,0,0,0,0,0,0,0,0,-0.505,-0.5048,-0.4979,-0.4979,-0.4979,-0.4952,-0.4952,-0.4952,-0.4974,-0.4975,-0.4976,-0.4978,-0.495,-0.4949,-0.4947,0,0,0,0,0,0,0,0,0,0,0,0,0,-0.5021,-0.5048,-0.4979,-0.4987,-0.4987,-0.4952,-0.4952,-0.4952,-0.4974,-0.4975,-0.4977,-0.4978,-0.4951,-0.4949,-0.4946,-0.4903,0,0,-0.4939,-0.4938,0,0,0,0,0,0,0,0,-0.5022,-0.5018,-0.4986,-0.4986,-0.4987,-0.4968,-0.4967,-0.4935,-0.4974,-0.4979,-0.4977,-0.4979,-0.4955,-0.4952,-0.4944,-0.4902,-0.4901,-0.4939,-0.4937,-0.4936,-0.4936,0,0,0,0,0,0,0,-0.5024,-0.5019,-0.4969,-0.4985,-0.4986,-0.4991,-0.4989,-0.4961,-0.4959,-0.4979,-0.498,-0.4977,-0.4955,-0.4946,-0.4944,-0.49,-0.4939,-0.4937,-0.4935,-0.4934,-0.4819,-0.4818,0,0,0,0,0,0,-0.5025,-0.5021,-0.497,-0.4968,-0.5008,-0.4989,-0.4986,-0.4973,-0.496,-0.4959,-0.4975,-0.4978,-0.495,-0.4946,-0.4943,-0.489,-0.4936,-0.4934,-0.4933,-0.4821,-0.4819,-0.4817,0,0,0,0,0,0,-0.5027,-0.5021,-0.4971,-0.4995,-0.4989,-0.4986,-0.4971,-0.4971,-0.4962,-0.4957,-0.4957,-0.4967,-0.4951,-0.4946,-0.4912,-0.4889,-0.4933,-0.4931,-0.4823,-0.482,-0.4818,-0.4784,0,0,0,0,0,0,-0.5029,-0.5021,-0.5005,-0.4994,-0.4987,-0.4941,-0.497,-0.497,-0.4958,-0.4961,-0.4949,-0.4948,-0.4952,-0.4916,-0.491,-0.4887,-0.4929,-0.4825,-0.4822,-0.4819,-0.4787,-0.4781,-0.4775,0,0,0,0,0,-0.5031,-0.4997,-0.5004,-0.4998,-0.4967,-0.4939,-0.4935,-0.494,-0.4956,-0.494,-0.4936,-0.4949,-0.4893,-0.4912,-0.4906,-0.4881,-0.4826,-0.4822,-0.4819,-0.479,-0.4782,-0.4775,0,0,0,0,0,0,-0.5006,-0.4996,-0.5003,-0.4965,-0.4953,-0.4943,-0.4922,-0.4932,-0.4915,-0.4918,-0.4924,-0.4921,-0.4885,-0.488,-0.4902,-0.4838,-0.4862,-0.4857,-0.4842,-0.4835,-0.4829,-0.483,-0.4927,0,0,0,0,0,-0.4995,-0.4974,-0.4966,-0.4933,-0.4926,-0.4925,-0.4914,-0.4918,-0.4905,-0.4901,-0.4895,-0.4882,-0.4862,-0.4848,-0.4829,-0.4787,-0.4784,-0.4767,-0.4761,-0.4756,-0.4751,-0.4726,-0.4718,-0.4805,-0.4805,-0.4805,0,0,-0.4974,-0.4966,-0.4952,-0.4928,-0.4919,-0.4895,-0.4921,-0.4896,-0.4879,-0.4897,-0.4864,-0.4859,-0.4846,-0.4807,-0.4789,-0.4801,-0.4726,-0.4751,-0.4747,-0.4745,-0.4722,-0.4714,-0.4706,-0.4803,-0.4803,-0.4804,0,0,-0.4923,-0.4916,-0.4886,-0.4876,-0.4862,-0.4861,-0.4854,-0.4843,-0.484,-0.4807,-0.482,-0.4799,-0.4765,-0.4754,-0.4744,-0.4687,-0.4697,-0.4681,-0.4649,-0.4625,-0.4618,-0.4612,-0.459,-0.4582,-0.4676,-0.4676,-0.4676,0,-0.4899,-0.4864,-0.487,-0.4843,-0.4831,-0.4846,-0.4815,-0.4806,-0.4786,-0.4777,-0.4791,-0.4746,-0.4738,-0.4696,-0.4682,-0.4674,-0.4665,-0.4682,-0.4619,-0.4613,-0.4607,-0.4586,-0.4578,-0.4674,-0.4674,-0.4675,-0.4675,0,-0.4834,-0.481,-0.4788,-0.4767,-0.4753,-0.4725,-0.4725,-0.471,-0.4715,-0.4712,-0.4678,-0.4669,-0.4647,-0.4638,-0.4643,-0.4596,-0.4603,-0.4618,-0.4642,-0.4597,-0.4577,-0.4569,-0.4671,-0.4672,-0.4673,-0.4673,0,0,-0.4766,-0.4748,-0.474,-0.473,-0.4715,-0.4696,-0.4668,-0.4646,-0.4632,-0.4619,-0.4594,-0.4563,-0.4576,-0.4564,-0.4569,-0.4548,-0.4501,-0.4564,-0.4564,-0.4551,-0.4446,-0.4434,-0.4425,-0.4508,-0.4507,-0.4506,-0.4447,0,-0.4714,-0.4664,-0.4667,-0.462,-0.4597,-0.461,-0.4585,-0.4573,-0.457,-0.4549,-0.4546,-0.4523,-0.4543,-0.4536,-0.4515,-0.4511,-0.448,-0.4515,-0.4484,-0.4483,-0.4486,-0.4415,-0.4403,-0.4348,-0.4439,-0.4438,-0.4437,0,-0.4645,-0.4627,-0.4578,-0.4564,-0.4555,-0.4532,-0.4512,-0.4493,-0.4479,-0.4478,-0.4464,-0.4471,-0.4442,-0.4467,-0.4426,-0.445,-0.4438,-0.4434,-0.4432,-0.4428,-0.4456,-0.4408,-0.4331,-0.4322,-0.4425,-0.4426,-0.4427,0,-0.4599,-0.4563,-0.4528,-0.4519,-0.4503,-0.4487,-0.4479,-0.4467,-0.4453,-0.4435,-0.4426,-0.4405,-0.4394,-0.4377,-0.4378,-0.4397,-0.4336,-0.4362,-0.4333,-0.4333,-0.4319,-0.4319,-0.4237,-0.4313,-0.4313,-0.4313,-0.4314,0,-0.4538,-0.4507,-0.4506,-0.4485,-0.4449,-0.4453,-0.4418,-0.4413,-0.4401,-0.4378,-0.4389,-0.4367,-0.437,-0.4348,-0.4349,-0.4314,-0.4309,-0.4307,-0.4307,-0.4305,-0.4305,-0.4296,-0.4299,-0.4311,-0.4312,-0.4312,-0.4312,0,-0.448,-0.4478,-0.4441,-0.4428,-0.4424,-0.4399,-0.4388,-0.4367,-0.4365,-0.4335,-0.4329,-0.4324,-0.4299,-0.4298,-0.427,-0.427,-0.4226,-0.4232,-0.4231,-0.4231,-0.4202,-0.4204,-0.4109,-0.4096,-0.4183,-0.4182,-0.4181,0,-0.4441,-0.4417,-0.4401,-0.4386,-0.4378,-0.4354,-0.4339,-0.4342,-0.4326,-0.4308,-0.4289,-0.4264,-0.4244,-0.4203,-0.4197,-0.4175,-0.4179,-0.4147,-0.4175,-0.4173,-0.4176,-0.4177,-0.4174,-0.4141,-0.414,-0.4139,-0.4139,0,-0.4371,-0.4371,-0.435,-0.4327,-0.431,-0.4293,-0.4277,-0.4264,-0.4265,-0.4246,-0.422,-0.4205,-0.4174,-0.4149,-0.4127,-0.4119,-0.4128,-0.413,-0.4122,-0.4119,-0.4118,-0.4116,-0.4214,-0.4132,-0.4133,-0.4133,-0.4133,-0.4134,-0.432,-0.4299,-0.4284,-0.4259,-0.4247,-0.4232,-0.4211,-0.4205,-0.4183,-0.4158,-0.4161,-0.4131,-0.4116,-0.4087,-0.4078,-0.4054,-0.4065,-0.4053,-0.405,-0.4047,-0.4043,-0.4123,-0.405,-0.405,-0.4051,-0.4051,-0.4051,0,-0.4249,-0.424,-0.4217,-0.4194,-0.4174,-0.4185,-0.4167,-0.415,-0.4123,-0.4109,-0.4088,-0.4057,-0.4033,-0.4024,-0.4,-0.3983,-0.3986,-0.3976,-0.3977,-0.3974,-0.4035,-0.4044,-0.3974,-0.3974,-0.3974,-0.3974,-0.3974,-0.3974,-0.421,-0.4174,-0.4171,-0.4129,-0.412,-0.409,-0.4079,-0.4064,-0.4052,-0.4017,-0.3996,-0.3991,-0.3978,-0.3953,-0.393,-0.3929,-0.3918,-0.3906,-0.3906,-0.3963,-0.3971,-0.3978,-0.3986,-0.3904,-0.3904,-0.3847,-0.3846,-0.3846]}]]